Regional Weather Roundup
Issued by NWS

Home | Current Version | Previous Version | Graphics & Text | Print | Product List | Glossary On
Versions: 1 2 3 4 5 6 7 8 9 10 11 12 13 14 15 16 17 18 19 20 21 22 23 24 25 26 27 28 29 30 31 32 33 34 35 36 37 38 39 40 41 42 43 44 45 46 47 48 49 50
000
ASUS45 KBOI 041910
RWRID

IDAHO REGIONAL WEATHER ROUNDUP
NATIONAL WEATHER SERVICE BOISE ID
100 PM MDT TUE AUG 04 2015

NOTE: "FAIR" INDICATES FEW OR NO CLOUDS BELOW 12000 FEET
WITH NO SIGNIFICANT WEATHER AND/OR OBSTRUCTIONS TO VISIBILITY

IDZ012-014-042000-
SOUTHWEST IDAHO


CITY           SKY/WX    TMP DP  RH WIND       PRES   REMARKS
BOISE          SUNNY     84  50  30 VRB5      29.99F
CALDWELL       SUNNY     81  52  36 NW6       29.99F
MOUNTAIN HOME  SUNNY     86  48  27 VRB6      29.98F
$$

IDZ016-017-042000-
SOUTHCENTRAL IDAHO


CITY           SKY/WX    TMP DP  RH WIND       PRES   REMARKS
BURLEY         SUNNY     82  51  34 NE7       30.04F
JEROME         SUNNY     81  48  31 E5        30.05F
TWIN FALLS     SUNNY     85  49  28 N9        30.03F
$$

IDZ019>023-042000-
SOUTHEAST IDAHO


CITY           SKY/WX    TMP DP  RH WIND       PRES   REMARKS
IDAHO FALLS    SUNNY     78  51  38 S8        30.11F
POCATELLO      MOSUNNY   83  54  36 NW7       30.09F
REXBURG        SUNNY     74  50  42 VRB6      30.12F
$$

IDZ006-010-011-018-031-032-042000-
CENTRAL IDAHO MOUNTAINS


CITY           SKY/WX    TMP DP  RH WIND       PRES   REMARKS
MCCALL         SUNNY     76  45  33 SE6       30.08F
HAILEY         MOSUNNY   75  52  43 SE12      30.14F
STANLEY          N/A     75  41  29 SW8G17    30.18S
SALMON         PTSUNNY   81  48  32 N9        29.97F
CHALLIS        MOSUNNY   80  41  24 E6        30.05F
$$

IDZ002-004-006-007-026-042000-
NORTHERN IDAHO


CITY           SKY/WX    TMP DP  RH WIND       PRES   REMARKS
LEWISTON       PTSUNNY   85  45  24 CALM      29.89F
LOWELL           N/A     86  50  28 S3        29.89F
COEUR D`ALENE  MOSUNNY   81  46  30 S13       29.92S
MULLAN PASS    MOSUNNY   63  42  46 VRB7      30.12S
$$



USA.gov is the U.S. government's official web portal to all federal, state and local government web resources and services.